SCP
-0 -0 -0 -0 0 0 0 -0 -0 -0 -0 -0 -0 -0 -0 0 0 0 -0 0 -0 -0 -0 -0 -0 -0 -0 -0 -0 0 0 0 0 0 0 0 0 0 0 0 0 0 0 0 0 0 0 0 0
-0 -0 -0 0 0 0 0 -0 -0 -0 -0 0 -0 -0 -0 0 0 0 0 -0 -0 -0 -0 -0 -0 -0 -0 -0 -0 0 0 0 0 0 0 0 0 0 0 0 0 0 0 0 0 0 0 0 0
-0 0 -0 0 0 0 0 -0 -0 -0 0 -0 -0 -0 -0 -0 0 -0 0 -0 -0 -0 -0 -0 -0 -0 -0 -0 0 0 0 0 0 0 0 0 0 0 0 0 0 0 0 0 0 0 0 0 0
0 0 -0 -0 0 -0 -0 -0 -0 -0 0 -0 -0 -0 -0 -0 -0 -0 -0 -0 -0 -0 -0 -0 -0 -0 -0 0 0 0 0 0 0 0 0 0 0 0 0 0 0 0 0 0 0 0 0 0 0
0 0 -0 0 0 -0 -0 -0 0 0 0 -0 0 -0 0 0 -0 -0 -0 -0 -0 -0 -0 -0 -0 0 0 0 0 0 0 0 0 0 0 0 0 0 0 0 0 0 0 0 0 0 0 0 0
0 0 -0 0 0 0 -0 -0 0 0 0 -0 -0 -0 -0 0 -0 -0 -0 -0 -0 -0 -0 0 0 0 0 0 0 0 0 0 0 0 0 0 0 0 0 0 0 0 0 0 0 0 0 0 0
0 0 -0 -0 0 0 -0 -0 0 0 -0 0 0 0 -0 -0 -0 -0 -0 -0 -0 -0 0 0 0 0 0 0 0 0 0 0 0 0 0 0 0 0 0 0 0 0 0 0 0 0 0 0 0
0 0 -0 -0 -0 -0 0 -0 -0 -0 -0 0 -0 0 0 -0 -0 -0 0 0 0 0 0 0 0 0 0 0 0 0 0 0 0 0 0 0 0 0 0 0 0 0 0 0 0 0 0 0 0
0 -0 0 -0 -0 -0 -0 -0 0 0 -0 -0 -0 0 -0 -0 -0 -0 -0 0 0 0 0 0 0 0 0 0 0 0 0 0 0 0 0 0 0 0 0 0 0 0 0 0 0 0 0 0 0
0 0 0 -0 -0 -0 -0 -0 0 -0 -0 0 -0 0 -0 -0 -0 -0 -0 0 0 0 0 0 0 0 -0 -0 -0 -0 0 0 0 0 0 0 0 0 0 0 0 0 0 0 0 0 0 0 0
0 0 -0 -0 -0 -0 -0 0 0 -0 -0 -0 -0 -0 -0 -0 -0 -0 0 0 0 0 0 0 0 -0 -0 -0 0 0 0 0 0 0 0 -0 0 0 0 0 0 0 0 0 0 0 0 0 0
0 -0 0 0 -0 -0 -0 0 0 -0 -0 -0 -0 -0 -1 -1 -0 0 0 0 0 0 0 0 0 0 -0 -0 0 0 0 0 0 0 0 0 0 0 0 0 0 0 0 0 0 0 0 0 0
-0 0 -0 -0 -0 0 -0 -0 0 0 -0 0 0 -0 -0 -0 0 0 0 0 0 0 0 0 0 0 0 0 0 0 0 0 0 0 0 0 0 0 0 0 0 0 0 0 0 0 0 0 0
0 0 -0 -0 -0 0 -0 0 0 0 0 0 0 0 0 0 -0 0 0 0 0 0 0 0 0 0 0 0 0 0 0 0 0 0 0 0 0 0 0 0 0 0 0 0 0 0 0 0 0
-0 0 0 0 0 0 0 0 0 0 0 0 0 0 0 0 0 0 0 0 0 0 0 0 0 0 0 0 0 0 0 0 0 0 0 0 0 0 0 0 0 0 0 0 0 0 0 0 0
0 0 0 0 0 0 0 0 0 -0 0 0 0 0 0 0 0 0 0 0 0 0 0 0 0 0 0 0 0 0 0 0 0 0 0 0 0 0 0 0 0 0 0 0 0 0 0 0 0
0 0 0 0 0 0 0 0 0 0 0 0 0 0 0 0 0 0 0 0 0 0 -0 0 0 0 0 0 0 0 0 0 0 0 0 0 0 0 0 0 0 0 1 0 1 0 0 0 0
0 0 0 0 0 0 0 0 0 0 0 0 0 0 0 0 0 0 0 0 0 0 0 0 0 0 0 0 0 0 0 0 0 0 0 0 0 0 0 0 0 0 0 1 1 1 1 1 1
0 0 0 0 0 0 0 0 0 0 0 0 0 0 0 0 0 0 0 0 0 0 0 0 0 0 0 0 0 0 0 0 0 0 0 0 0 0 0 0 0 0 0 0 0 0 0 0 0
0 0 -0 0 0 0 0 0 0 0 0 0 0 0 0 0 0 0 0 0 0 0 0 0 0 0 0 0 0 0 0 0 0 0 0 0 0 0 0 0 0 0 0 0 0 0 0 0 0
-0 0 0 0 0 0 0 0 0 0 0 0 0 0 0 0 0 0 0 0 0 0 0 0 0 0 0 0 0 0 0 0 0 0 0 0 0 0 0 0 0 0 0 0 0 0 0 0 0
-0 0 0 0 0 0 0 0 0 0 0 0 0 0 0 0 0 0 0 0 0 0 0 0 0 0 0 0 0 0 0 0 0 0 0 0 0 0 0 0 0 0 0 0 0 0 0 0 0
0 0 0 0 0 0 0 0 0 0 0 0 1 1 0 0 0 0 0 0 0 0 0 0 0 0 0 0 0 0 0 0 0 0 0 0 0 0 0 0 0 0 0 0 0 0 0 0 1
0 0 0 0 0 0 0 0 0 0 0 0 1 1 0 0 0 0 0 0 0 0 0 0 0 0 0 0 0 0 0 0 0 0 0 0 0 0 0 0 0 0 0 0 0 0 0 0 0
0 0 0 0 0 0 0 0 0 0 0 0 0 0 0 0 0 0 0 0 0 0 0 0 0 0 0 0 0 0 0 0 0 0 0 0 0 0 0 0 0 0 0 0 0 0 0 0 0
0 0 0 0 0 0 0 0 0 0 0 0 0 0 0 0 0 0 0 0 0 0 0 0 0 0 0 0 0 0 0 0 0 0 0 0 0 0 0 0 0 0 0 0 0 0 0 0 0
0 0 0 0 0 0 0 0 0 0 0 0 0 0 0 0 0 0 -0 -0 0 0 0 0 0 0 0 0 0 0 0 0 0 0 0 0 0 0 0 0 0 0 0 0 0 0 0 0 0
0 0 0 0 0 -0 0 0 0 0 0 0 0 0 0 0 0 -0 -0 -0 0 0 -0 0 0 0 0 0 0 0 0 0 0 0 0 0 0 0 0 0 0 0 0 0 0 0 0 0 0
0 0 0 0 0 0 0 0 0 -0 0 0 0 0 0 0 0 -0 -0 -0 -0 0 0 0 0 0 0 0 0 0 0 0 0 0 0 0 0 0 0 0 0 0 0 0 0 0 0 0 0
0 0 0 0 0 0 0 0 0 -0 -0 0 0 0 0 0 0 -0 -0 0 -0 -0 -0 0 0 0 0 0 0 0 0 0 0 0 0 0 0 0 0 0 0 0 0 0 0 0 0 0 0
Wind_Speed_500mb
10 13 10 6 1 3 6 2 3 2 3 2 9 6 4 4 1 4 5 27 41 45 41 36 31 27 24 20 18 15 12 11 9 8 6 6 6 5 5 7 9 10 11 12 14 15 16 17 17
6 6 7 5 4 4 4 3 6 2 7 14 10 5 3 0 4 3 10 31 48 42 39 36 32 29 26 23 19 14 12 11 10 8 8 7 7 8 9 10 12 14 16 17 18 20 21 22 22
9 5 3 5 4 4 5 3 2 5 18 3 3 1 3 2 4 6 12 35 51 42 37 34 31 28 24 20 16 13 11 9 7 8 8 8 9 9 10 10 11 12 13 15 17 18 20 22 24
4 5 7 5 9 2 0 4 7 9 11 7 3 3 2 6 4 10 23 39 44 40 37 33 31 28 24 22 18 16 14 12 11 10 8 7 7 7 6 5 5 7 8 10 12 13 14 15 15
4 2 4 6 9 3 7 7 9 8 6 4 6 1 5 8 9 18 29 41 44 41 38 36 32 27 24 19 17 15 13 12 10 6 5 4 5 4 3 2 3 5 5 6 8 11 13 13 13
2 1 4 7 5 2 7 17 14 13 15 5 5 5 3 8 13 21 31 35 37 35 38 36 31 25 21 19 17 14 11 10 8 6 4 4 3 2 3 1 4 7 7 9 10 12 15 15 11
5 5 5 4 5 4 2 19 14 15 15 14 9 8 6 19 22 25 30 34 36 34 35 33 29 25 22 18 15 14 14 13 10 5 3 3 2 1 2 2 4 7 10 12 15 15 15 15 11
5 3 2 2 3 2 5 12 6 20 14 11 21 10 5 12 30 30 34 36 36 34 35 32 29 26 23 19 17 16 15 12 8 2 3 3 1 3 3 5 5 6 10 12 13 14 15 15 13
3 2 2 2 3 5 2 5 6 9 12 13 17 11 13 10 33 36 43 42 41 38 36 36 33 31 26 22 19 18 16 13 9 4 1 2 1 3 7 6 4 4 6 7 10 13 17 17 15
1 2 3 4 3 2 3 5 7 10 13 11 17 29 21 21 37 39 47 47 44 42 40 40 36 31 27 24 23 23 20 17 12 7 2 2 2 4 5 6 8 8 12 16 18 20 22 23 22
5 6 2 7 16 13 9 10 13 16 18 20 31 29 27 29 38 41 42 37 33 32 37 37 32 33 30 28 27 26 22 18 14 11 6 3 5 8 9 10 12 16 20 24 27 29 29 28 28
7 20 18 11 1 4 9 5 11 22 14 11 16 27 34 37 40 43 39 35 34 36 31 32 33 34 35 33 29 27 25 21 17 17 15 12 12 14 16 18 19 21 28 31 28 34 33 38 39
11 16 11 16 25 15 12 10 8 4 10 10 13 18 28 30 32 34 33 31 32 31 31 35 36 38 34 31 32 31 29 27 24 26 25 23 21 24 26 28 30 31 31 30 34 39 39 33 32
4 18 22 14 13 1 5 4 5 4 7 3 2 8 17 23 26 27 28 30 32 32 35 37 40 41 41 42 37 28 40 34 32 34 34 33 36 36 41 43 45 44 43 42 39 40 42 34 34
8 9 4 5 3 4 4 5 3 11 4 6 4 3 8 14 21 21 21 27 29 30 41 46 38 43 45 48 39 46 38 46 37 32 36 39 45 48 48 53 57 54 53 54 48 45 40 42 42
3 3 6 6 8 5 4 8 2 6 0 3 1 4 7 11 16 23 26 27 23 35 35 33 41 38 39 40 40 42 34 39 38 41 45 41 47 41 48 46 48 47 47 52 56 54 54 40 40
5 5 5 8 4 2 4 5 4 2 7 8 7 7 10 13 18 21 27 31 35 24 13 9 25 32 31 32 34 26 22 27 35 41 44 35 44 40 40 42 47 48 56 54 52 49 51 50 41
8 12 8 10 3 3 5 4 2 9 10 8 9 10 13 13 16 24 28 28 16 9 4 7 11 8 9 14 16 16 21 27 30 33 32 36 40 35 41 44 52 51 54 52 52 55 51 58 53
6 12 16 15 6 7 9 9 14 11 14 16 17 14 13 10 12 12 14 7 2 3 4 13 18 11 11 13 8 16 22 22 21 26 33 33 32 37 40 38 41 43 41 40 46 49 55 55 54
13 16 21 12 6 9 9 19 14 16 12 13 14 10 8 9 7 2 6 4 9 11 10 12 20 8 15 17 10 18 24 24 28 34 27 23 24 27 32 37 40 43 43 43 44 47 54 57 61
22 19 23 20 2 6 7 12 12 11 14 16 16 12 14 12 8 6 4 11 14 12 11 19 15 5 12 21 6 12 19 22 25 18 15 20 26 32 35 36 38 43 46 46 49 52 52 56 61
26 33 25 20 16 21 3 18 9 14 19 16 16 12 20 17 11 9 7 11 14 14 12 12 12 15 14 14 7 11 14 6 9 12 19 26 32 33 36 41 47 50 50 55 53 53 55 50 46
30 17 17 15 15 7 12 11 6 3 20 24 19 11 18 20 16 14 11 8 10 15 14 11 10 11 14 6 2 2 4 4 13 18 24 26 33 38 43 48 50 54 57 61 63 62 58 47 50
16 16 11 3 5 13 14 11 15 11 22 19 13 11 19 22 20 14 13 8 9 12 10 9 7 8 6 4 5 8 9 15 19 22 26 33 38 43 46 45 52 56 60 63 63 60 54 48 48
5 5 12 16 13 21 3 9 19 13 12 15 21 20 19 20 19 14 11 7 7 11 10 8 3 4 11 12 9 12 15 19 24 29 32 39 41 38 42 51 54 54 57 56 54 54 50 47 46
4 5 11 28 23 29 4 10 6 5 3 3 18 20 20 19 18 16 11 11 12 11 8 13 13 12 9 7 9 13 18 22 25 30 39 30 34 39 47 51 47 49 53 53 52 50 43 38 40
7 7 4 5 2 8 7 7 17 5 8 7 20 23 22 18 25 21 14 14 14 15 17 15 12 9 6 4 9 17 20 20 27 35 24 31 37 42 48 46 45 50 52 53 51 45 44 37 30
3 11 7 6 13 20 6 8 17 7 16 18 22 26 25 24 30 23 20 18 19 20 18 12 8 4 6 12 18 22 24 27 29 20 26 34 39 43 47 41 43 47 46 50 45 42 38 33 22
6 5 3 3 5 11 16 8 4 19 15 22 27 30 32 35 34 26 23 21 18 19 20 19 15 13 17 20 22 23 29 29 17 21 28 35 40 43 41 40 42 41 39 41 39 34 34 28 23
3 9 10 11 9 6 7 12 2 16 14 21 29 32 30 32 32 28 27 22 22 24 24 23 23 23 22 23 24 25 31 22 20 24 30 34 41 39 37 37 37 38 38 40 42 37 33 32 26
Wind_Direction_500mb
24 3 355 23 113 44 85 98 14 51 105 316 147 172 204 83 275 354 196 171 174 174 173 174 179 180 180 185 183 185 184 184 185 198 202 209 223 242 262 274 279 282 283 282 283 281 280 276 269
15 4 9 44 63 63 83 112 180 195 107 114 104 89 141 279 226 257 148 166 170 174 177 177 179 183 185 188 189 186 186 182 187 188 199 218 235 247 257 270 274 280 282 280 278 277 276 273 271
23 360 29 65 100 106 109 166 180 109 145 89 140 106 173 169 226 211 176 169 166 174 174 177 181 184 189 187 184 185 195 194 196 215 217 229 239 248 253 264 279 286 291 297 296 291 286 282 279
316 350 60 67 71 120 81 83 166 137 193 246 180 194 283 215 239 203 170 169 169 173 176 179 184 189 187 184 188 184 190 197 202 208 211 218 240 250 256 258 276 295 297 300 300 305 303 302 297
354 36 72 68 64 146 221 205 175 186 188 187 192 181 232 219 194 166 168 173 178 178 182 184 188 187 181 185 185 191 194 196 194 191 211 237 246 254 241 286 331 340 351 360 357 342 334 323 319
25 32 65 59 18 235 221 195 173 207 219 171 219 199 257 212 182 169 173 177 183 189 185 185 185 186 188 184 187 191 192 190 195 192 210 239 251 262 221 300 23 28 37 38 33 30 23 16 13
44 13 38 360 360 331 283 173 197 214 213 219 214 203 223 204 184 183 179 184 187 190 189 188 188 190 191 192 196 193 185 189 187 185 238 271 262 239 245 316 360 22 25 25 24 26 31 30 23
72 342 43 346 352 77 350 176 226 189 209 217 203 225 203 214 188 181 185 188 191 189 194 195 195 199 194 197 199 194 190 190 186 212 327 322 273 271 301 315 334 360 24 18 5 358 1 8 9
103 190 360 158 204 17 120 180 146 201 173 187 204 242 231 213 190 186 188 192 195 200 201 201 203 203 201 199 203 199 201 201 199 199 161 261 145 337 307 283 276 336 302 338 318 325 328 323 321
131 308 248 249 248 11 327 319 180 205 212 218 235 239 242 198 195 196 195 197 202 207 207 205 207 207 209 208 206 205 208 210 209 198 169 148 199 348 334 305 289 306 326 312 320 312 307 318 304
166 240 212 304 264 265 281 246 227 245 232 228 227 223 223 204 201 204 204 210 213 213 212 209 210 210 216 214 214 213 216 219 225 227 225 241 266 299 313 309 288 290 298 300 299 302 299 298 303
254 247 241 287 152 265 257 229 230 234 267 256 249 249 233 217 210 208 207 210 212 215 218 214 214 214 214 222 220 225 228 230 237 244 247 254 259 274 282 282 280 288 291 295 295 305 296 298 296
234 287 262 288 278 281 274 266 298 28 320 301 277 243 223 214 211 211 210 216 222 224 226 225 225 227 228 227 233 229 235 236 244 251 252 258 266 263 272 274 272 272 279 291 289 303 295 294 294
276 282 284 288 263 319 312 316 350 360 354 334 235 200 213 217 216 217 211 223 233 238 240 239 237 238 239 233 229 234 248 240 244 252 259 263 267 269 270 274 275 273 275 283 282 284 289 281 286
296 310 343 22 340 11 338 254 340 342 360 39 62 180 219 225 226 234 232 241 251 260 269 249 249 242 245 253 233 248 248 238 243 259 266 276 277 278 281 279 279 280 283 287 274 275 267 276 283
8 66 7 360 343 10 222 18 30 329 359 81 131 244 217 215 225 229 235 249 254 285 281 274 247 250 248 254 257 254 255 239 249 258 275 281 271 281 284 283 289 288 286 282 278 275 268 263 282
9 345 295 309 16 302 297 309 342 272 194 195 201 210 217 229 237 244 253 266 284 286 267 254 234 246 254 264 271 256 238 252 260 272 272 288 281 291 286 292 293 296 295 285 279 275 277 273 261
296 297 270 277 207 110 291 234 262 233 222 195 207 222 238 244 261 260 269 276 293 199 187 212 200 219 237 272 260 228 252 274 275 274 268 282 292 290 294 293 298 290 295 288 282 278 275 272 266
267 268 272 278 274 257 260 210 206 218 250 240 228 236 230 230 228 266 280 281 351 231 226 170 152 122 77 26 293 259 267 272 265 276 289 296 294 302 305 301 297 296 301 295 289 284 279 279 272
265 289 271 285 210 235 231 256 195 207 233 221 208 211 212 206 219 351 47 89 126 124 135 163 165 87 27 3 325 268 271 270 279 289 293 296 305 307 314 318 322 319 316 310 304 299 297 292 292
267 253 278 290 203 246 257 262 207 206 221 212 230 224 206 197 180 137 84 108 134 140 138 167 191 229 351 347 321 254 264 282 282 298 296 301 319 324 326 332 331 325 321 314 309 307 307 302 299
273 277 268 275 293 290 285 294 261 218 204 210 208 214 187 183 172 151 137 136 153 165 156 182 223 256 290 315 300 270 264 259 289 299 312 323 323 325 326 325 323 323 322 320 317 314 308 300 294
267 299 279 286 273 271 232 253 275 279 238 212 179 157 149 157 165 166 174 162 157 171 180 186 213 254 289 282 272 195 153 331 320 317 320 321 325 325 321 323 324 323 323 320 317 314 311 300 291
267 269 270 134 235 258 285 255 287 234 238 208 156 143 146 148 163 172 189 186 165 174 176 194 216 252 278 324 102 84 11 340 331 328 324 322 318 316 318 325 328 329 328 327 323 319 312 303 298
171 240 284 279 258 283 33 242 277 307 284 246 167 160 157 156 167 173 193 194 160 160 166 174 173 83 85 86 43 19 360 340 331 322 318 315 316 325 331 334 333 333 333 332 327 323 317 307 297
174 233 287 293 291 296 134 250 292 5 15 14 163 160 164 159 162 150 160 167 150 149 151 126 101 103 90 63 23 351 332 319 313 315 315 321 327 332 334 334 335 338 340 338 334 330 324 313 307
150 247 48 280 227 268 281 274 265 254 206 174 171 168 167 167 154 147 166 167 149 139 141 127 109 95 68 354 317 314 306 309 311 314 325 330 330 331 331 335 338 339 338 339 337 337 331 327 320
285 127 247 252 277 285 244 273 280 274 228 203 181 184 176 169 163 164 179 165 155 153 153 139 152 170 263 286 293 295 300 309 313 318 328 331 329 325 330 334 340 340 346 341 341 339 328 330 337
172 217 141 285 256 279 294 264 226 295 298 214 193 185 180 175 178 180 185 174 176 195 207 217 232 256 265 281 285 288 302 307 298 317 327 331 331 325 329 331 336 339 340 342 346 348 336 325 327
292 276 227 247 227 228 291 268 272 289 292 206 186 184 182 183 186 190 192 186 199 214 226 239 253 261 273 275 277 290 307 295 296 312 320 324 329 327 329 333 339 342 337 332 332 334 334 334 324
Wind_Speed_850mb
10 13 10 6 1 3 6 2 3 2 3 2 9 6 4 4 1 4 5 27 41 45 41 36 31 27 24 20 18 15 12 11 9 8 6 6 6 5 5 7 9 10 11 12 14 15 16 17 17
6 6 7 5 4 4 4 3 6 2 7 14 10 5 3 0 4 3 10 31 48 42 39 36 32 29 26 23 19 14 12 11 10 8 8 7 7 8 9 10 12 14 16 17 18 20 21 22 22
9 5 3 5 4 4 5 3 2 5 18 3 3 1 3 2 4 6 12 35 51 42 37 34 31 28 24 20 16 13 11 9 7 8 8 8 9 9 10 10 11 12 13 15 17 18 20 22 24
4 5 7 5 9 2 0 4 7 9 11 7 3 3 2 6 4 10 23 39 44 40 37 33 31 28 24 22 18 16 14 12 11 10 8 7 7 7 6 5 5 7 8 10 12 13 14 15 15
4 2 4 6 9 3 7 7 9 8 6 4 6 1 5 8 9 18 29 41 44 41 38 36 32 27 24 19 17 15 13 12 10 6 5 4 5 4 3 2 3 5 5 6 8 11 13 13 13
2 1 4 7 5 2 7 17 14 13 15 5 5 5 3 8 13 21 31 35 37 35 38 36 31 25 21 19 17 14 11 10 8 6 4 4 3 2 3 1 4 7 7 9 10 12 15 15 11
5 5 5 4 5 4 2 19 14 15 15 14 9 8 6 19 22 25 30 34 36 34 35 33 29 25 22 18 15 14 14 13 10 5 3 3 2 1 2 2 4 7 10 12 15 15 15 15 11
5 3 2 2 3 2 5 12 6 20 14 11 21 10 5 12 30 30 34 36 36 34 35 32 29 26 23 19 17 16 15 12 8 2 3 3 1 3 3 5 5 6 10 12 13 14 15 15 13
3 2 2 2 3 5 2 5 6 9 12 13 17 11 13 10 33 36 43 42 41 38 36 36 33 31 26 22 19 18 16 13 9 4 1 2 1 3 7 6 4 4 6 7 10 13 17 17 15
1 2 3 4 3 2 3 5 7 10 13 11 17 29 21 21 37 39 47 47 44 42 40 40 36 31 27 24 23 23 20 17 12 7 2 2 2 4 5 6 8 8 12 16 18 20 22 23 22
5 6 2 7 16 13 9 10 13 16 18 20 31 29 27 29 38 41 42 37 33 32 37 37 32 33 30 28 27 26 22 18 14 11 6 3 5 8 9 10 12 16 20 24 27 29 29 28 28
7 20 18 11 1 4 9 5 11 22 14 11 16 27 34 37 40 43 39 35 34 36 31 32 33 34 35 33 29 27 25 21 17 17 15 12 12 14 16 18 19 21 28 31 28 34 33 38 39
11 16 11 16 25 15 12 10 8 4 10 10 13 18 28 30 32 34 33 31 32 31 31 35 36 38 34 31 32 31 29 27 24 26 25 23 21 24 26 28 30 31 31 30 34 39 39 33 32
4 18 22 14 13 1 5 4 5 4 7 3 2 8 17 23 26 27 28 30 32 32 35 37 40 41 41 42 37 28 40 34 32 34 34 33 36 36 41 43 45 44 43 42 39 40 42 34 34
8 9 4 5 3 4 4 5 3 11 4 6 4 3 8 14 21 21 21 27 29 30 41 46 38 43 45 48 39 46 38 46 37 32 36 39 45 48 48 53 57 54 53 54 48 45 40 42 42
3 3 6 6 8 5 4 8 2 6 0 3 1 4 7 11 16 23 26 27 23 35 35 33 41 38 39 40 40 42 34 39 38 41 45 41 47 41 48 46 48 47 47 52 56 54 54 40 40
5 5 5 8 4 2 4 5 4 2 7 8 7 7 10 13 18 21 27 31 35 24 13 9 25 32 31 32 34 26 22 27 35 41 44 35 44 40 40 42 47 48 56 54 52 49 51 50 41
8 12 8 10 3 3 5 4 2 9 10 8 9 10 13 13 16 24 28 28 16 9 4 7 11 8 9 14 16 16 21 27 30 33 32 36 40 35 41 44 52 51 54 52 52 55 51 58 53
6 12 16 15 6 7 9 9 14 11 14 16 17 14 13 10 12 12 14 7 2 3 4 13 18 11 11 13 8 16 22 22 21 26 33 33 32 37 40 38 41 43 41 40 46 49 55 55 54
13 16 21 12 6 9 9 19 14 16 12 13 14 10 8 9 7 2 6 4 9 11 10 12 20 8 15 17 10 18 24 24 28 34 27 23 24 27 32 37 40 43 43 43 44 47 54 57 61
22 19 23 20 2 6 7 12 12 11 14 16 16 12 14 12 8 6 4 11 14 12 11 19 15 5 12 21 6 12 19 22 25 18 15 20 26 32 35 36 38 43 46 46 49 52 52 56 61
26 33 25 20 16 21 3 18 9 14 19 16 16 12 20 17 11 9 7 11 14 14 12 12 12 15 14 14 7 11 14 6 9 12 19 26 32 33 36 41 47 50 50 55 53 53 55 50 46
30 17 17 15 15 7 12 11 6 3 20 24 19 11 18 20 16 14 11 8 10 15 14 11 10 11 14 6 2 2 4 4 13 18 24 26 33 38 43 48 50 54 57 61 63 62 58 47 50
16 16 11 3 5 13 14 11 15 11 22 19 13 11 19 22 20 14 13 8 9 12 10 9 7 8 6 4 5 8 9 15 19 22 26 33 38 43 46 45 52 56 60 63 63 60 54 48 48
5 5 12 16 13 21 3 9 19 13 12 15 21 20 19 20 19 14 11 7 7 11 10 8 3 4 11 12 9 12 15 19 24 29 32 39 41 38 42 51 54 54 57 56 54 54 50 47 46
4 5 11 28 23 29 4 10 6 5 3 3 18 20 20 19 18 16 11 11 12 11 8 13 13 12 9 7 9 13 18 22 25 30 39 30 34 39 47 51 47 49 53 53 52 50 43 38 40
7 7 4 5 2 8 7 7 17 5 8 7 20 23 22 18 25 21 14 14 14 15 17 15 12 9 6 4 9 17 20 20 27 35 24 31 37 42 48 46 45 50 52 53 51 45 44 37 30
3 11 7 6 13 20 6 8 17 7 16 18 22 26 25 24 30 23 20 18 19 20 18 12 8 4 6 12 18 22 24 27 29 20 26 34 39 43 47 41 43 47 46 50 45 42 38 33 22
6 5 3 3 5 11 16 8 4 19 15 22 27 30 32 35 34 26 23 21 18 19 20 19 15 13 17 20 22 23 29 29 17 21 28 35 40 43 41 40 42 41 39 41 39 34 34 28 23
3 9 10 11 9 6 7 12 2 16 14 21 29 32 30 32 32 28 27 22 22 24 24 23 23 23 22 23 24 25 31 22 20 24 30 34 41 39 37 37 37 38 38 40 42 37 33 32 26
Wind_Direction_850mb
24 3 355 23 113 44 85 98 14 51 105 316 147 172 204 83 275 354 196 171 174 174 173 174 179 180 180 185 183 185 184 184 185 198 202 209 223 242 262 274 279 282 283 282 283 281 280 276 269
15 4 9 44 63 63 83 112 180 195 107 114 104 89 141 279 226 257 148 166 170 174 177 177 179 183 185 188 189 186 186 182 187 188 199 218 235 247 257 270 274 280 282 280 278 277 276 273 271
23 360 29 65 100 106 109 166 180 109 145 89 140 106 173 169 226 211 176 169 166 174 174 177 181 184 189 187 184 185 195 194 196 215 217 229 239 248 253 264 279 286 291 297 296 291 286 282 279
316 350 60 67 71 120 81 83 166 137 193 246 180 194 283 215 239 203 170 169 169 173 176 179 184 189 187 184 188 184 190 197 202 208 211 218 240 250 256 258 276 295 297 300 300 305 303 302 297
354 36 72 68 64 146 221 205 175 186 188 187 192 181 232 219 194 166 168 173 178 178 182 184 188 187 181 185 185 191 194 196 194 191 211 237 246 254 241 286 331 340 351 360 357 342 334 323 319
25 32 65 59 18 235 221 195 173 207 219 171 219 199 257 212 182 169 173 177 183 189 185 185 185 186 188 184 187 191 192 190 195 192 210 239 251 262 221 300 23 28 37 38 33 30 23 16 13
44 13 38 360 360 331 283 173 197 214 213 219 214 203 223 204 184 183 179 184 187 190 189 188 188 190 191 192 196 193 185 189 187 185 238 271 262 239 245 316 360 22 25 25 24 26 31 30 23
72 342 43 346 352 77 350 176 226 189 209 217 203 225 203 214 188 181 185 188 191 189 194 195 195 199 194 197 199 194 190 190 186 212 327 322 273 271 301 315 334 360 24 18 5 358 1 8 9
103 190 360 158 204 17 120 180 146 201 173 187 204 242 231 213 190 186 188 192 195 200 201 201 203 203 201 199 203 199 201 201 199 199 161 261 145 337 307 283 276 336 302 338 318 325 328 323 321
131 308 248 249 248 11 327 319 180 205 212 218 235 239 242 198 195 196 195 197 202 207 207 205 207 207 209 208 206 205 208 210 209 198 169 148 199 348 334 305 289 306 326 312 320 312 307 318 304
166 240 212 304 264 265 281 246 227 245 232 228 227 223 223 204 201 204 204 210 213 213 212 209 210 210 216 214 214 213 216 219 225 227 225 241 266 299 313 309 288 290 298 300 299 302 299 298 303
254 247 241 287 152 265 257 229 230 234 267 256 249 249 233 217 210 208 207 210 212 215 218 214 214 214 214 222 220 225 228 230 237 244 247 254 259 274 282 282 280 288 291 295 295 305 296 298 296
234 287 262 288 278 281 274 266 298 28 320 301 277 243 223 214 211 211 210 216 222 224 226 225 225 227 228 227 233 229 235 236 244 251 252 258 266 263 272 274 272 272 279 291 289 303 295 294 294
276 282 284 288 263 319 312 316 350 360 354 334 235 200 213 217 216 217 211 223 233 238 240 239 237 238 239 233 229 234 248 240 244 252 259 263 267 269 270 274 275 273 275 283 282 284 289 281 286
296 310 343 22 340 11 338 254 340 342 360 39 62 180 219 225 226 234 232 241 251 260 269 249 249 242 245 253 233 248 248 238 243 259 266 276 277 278 281 279 279 280 283 287 274 275 267 276 283
8 66 7 360 343 10 222 18 30 329 359 81 131 244 217 215 225 229 235 249 254 285 281 274 247 250 248 254 257 254 255 239 249 258 275 281 271 281 284 283 289 288 286 282 278 275 268 263 282
9 345 295 309 16 302 297 309 342 272 194 195 201 210 217 229 237 244 253 266 284 286 267 254 234 246 254 264 271 256 238 252 260 272 272 288 281 291 286 292 293 296 295 285 279 275 277 273 261
296 297 270 277 207 110 291 234 262 233 222 195 207 222 238 244 261 260 269 276 293 199 187 212 200 219 237 272 260 228 252 274 275 274 268 282 292 290 294 293 298 290 295 288 282 278 275 272 266
267 268 272 278 274 257 260 210 206 218 250 240 228 236 230 230 228 266 280 281 351 231 226 170 152 122 77 26 293 259 267 272 265 276 289 296 294 302 305 301 297 296 301 295 289 284 279 279 272
265 289 271 285 210 235 231 256 195 207 233 221 208 211 212 206 219 351 47 89 126 124 135 163 165 87 27 3 325 268 271 270 279 289 293 296 305 307 314 318 322 319 316 310 304 299 297 292 292
267 253 278 290 203 246 257 262 207 206 221 212 230 224 206 197 180 137 84 108 134 140 138 167 191 229 351 347 321 254 264 282 282 298 296 301 319 324 326 332 331 325 321 314 309 307 307 302 299
273 277 268 275 293 290 285 294 261 218 204 210 208 214 187 183 172 151 137 136 153 165 156 182 223 256 290 315 300 270 264 259 289 299 312 323 323 325 326 325 323 323 322 320 317 314 308 300 294
267 299 279 286 273 271 232 253 275 279 238 212 179 157 149 157 165 166 174 162 157 171 180 186 213 254 289 282 272 195 153 331 320 317 320 321 325 325 321 323 324 323 323 320 317 314 311 300 291
267 269 270 134 235 258 285 255 287 234 238 208 156 143 146 148 163 172 189 186 165 174 176 194 216 252 278 324 102 84 11 340 331 328 324 322 318 316 318 325 328 329 328 327 323 319 312 303 298
171 240 284 279 258 283 33 242 277 307 284 246 167 160 157 156 167 173 193 194 160 160 166 174 173 83 85 86 43 19 360 340 331 322 318 315 316 325 331 334 333 333 333 332 327 323 317 307 297
174 233 287 293 291 296 134 250 292 5 15 14 163 160 164 159 162 150 160 167 150 149 151 126 101 103 90 63 23 351 332 319 313 315 315 321 327 332 334 334 335 338 340 338 334 330 324 313 307
150 247 48 280 227 268 281 274 265 254 206 174 171 168 167 167 154 147 166 167 149 139 141 127 109 95 68 354 317 314 306 309 311 314 325 330 330 331 331 335 338 339 338 339 337 337 331 327 320
285 127 247 252 277 285 244 273 280 274 228 203 181 184 176 169 163 164 179 165 155 153 153 139 152 170 263 286 293 295 300 309 313 318 328 331 329 325 330 334 340 340 346 341 341 339 328 330 337
172 217 141 285 256 279 294 264 226 295 298 214 193 185 180 175 178 180 185 174 176 195 207 217 232 256 265 281 285 288 302 307 298 317 327 331 331 325 329 331 336 339 340 342 346 348 336 325 327
292 276 227 247 227 228 291 268 272 289 292 206 186 184 182 183 186 190 192 186 199 214 226 239 253 261 273 275 277 290 307 295 296 312 320 324 329 327 329 333 339 342 337 332 332 334 334 334 324